ROMMA est une association bénévole à but non lucratif. Votre soutien est indispensable : ADHERER à ROMMA ou FAIRE un DON

Chambon - (38, Isère)

Oisans (2460 m)   Longitude: 06° 10' 42" E   Latitude: 45° 01' 32" N Station partenaire n°803
 

Détail journalier du     <<     >>

Température Humidité Vent Dir Rafale Dir. rafale Neige 1 Neige 2
Heure (°C) (%) (km/h) (km/h) (cm) (cm)
01:00 8.9853SSO6SO52
02:00 8.9844SSO6SSO41
03:00 8.3862S7SSO52
04:00 7.9922E8E43
05:00 8.4895NNE10NNE32
06:00 8.3887NNE14NE41
07:00 8.4869NE13NE41
08:00 8.4844NNE10NNE53
09:00 10.7753NNE9NNE30
10:00 12.0684NNE10ENE21
11:00 13.5672ENE8ENE00
12:00 13.2732OSO9O10
13:00 13.6724NNE11NE10
14:00 14.7693NE12NNO00
15:00 15.4652ONO12NNO00
16:00 15.8682ONO12ONO00
17:00 15.7696O22O00
18:00 15.2756O20O10
19:00 13.2879O23ONO10
20:00 11.89111O20O31
21:00 10.9915N18OSO01
22:00 10.3962ENE8ENE00
23:00 10.0942N7N01
minuit 10.0952NNE5NNE01

Graphique du 29-08-2019

 

Serveur OMMA